Tracking 18816 objects as of 18-October-2017
HD Live streaming from Space Station
objects crossing your sky now

CZ-4 DEB

Track CZ-4 DEB now!
10-day predictions


NORAD ID: 26650
Int'l Code: 1999-057LG
Perigee: 630.3 km
Apogee: 647.1 km
Inclination: 98.5 °
Period: 97.3 minutes
Semi major axis: 7009 km
RCS: 0.0056 m2 (small)
Launch date: October 14, 1999
Source: People's Republic of China (PRC)
Launch site: Taiyaun Space Center, China (TSC)

Note: This is SATELLITE DEBRIS
aabbcc
Your satellite tracking list
Your tracking list is empty





NASA's NSSDC Master Catalog

Two Line Element Set (TLE):
1 26650U 99057LG  17288.73689894  .00000850  00000-0  12209-3 0  9999
2 26650  98.5255  20.9426 0011986 164.2329 347.8013 14.79299346928650
Source of the keplerian elements: AFSPC